Zapata, TX

7:37 AM CDT on April 23, 2017 (GMT -0500)
Zapata

Weather History for KAPY - February, 2014

Change the Weather History Date:

Tuesday, February 11, 2014

  Actual Average (KLRD) Record (KLRD)
Temperature  
Mean Temperature 40 °F -  
Max Temperature 41 °F 68 °F 93 °F (2017)
Min Temperature 39 °F 49 °F 24 °F (1929)
Degree Days  
Heating Degree Days 25    
Moisture  
Dew Point 34 °F    
Average Humidity 79    
Maximum Humidity 87    
Minimum Humidity 76    
Precipitation  
Precipitation 0.00 in - - ()
Sea Level Pressure  
Sea Level Pressure 30.18 in    
Wind  
Wind Speed 9 mph (NNW)    
Max Wind Speed 15 mph    
Max Gust Speed 22 mph    
Visibility 8 miles    
Events      
Averages and records for this station are not official NWS values.
T = Trace of Precipitation, MM = Missing Value Source: NWS Daily Summary

Daily Weather History Graph

Daily Weather History Graph

Search for Another Location

Airport or City:

Trip Planner

Search our weather history database for the weather conditions in past years. The results will help you decide how hot, cold, wet, or windy it might be!

Date:

Astronomy

Feb. 11, 2014 Rise Set
Actual Time 7:16 AM CST 6:26 PM CST
Civil Twilight 6:52 AM CST 6:50 PM CST
Nautical Twilight 6:25 AM CST 7:17 PM CST
Astronomical Twilight 5:57 AM CST 7:44 PM CST
Moon 3:54 PM CST (2/11) 4:47 AM CST (2/11)
Length of Visible Light 11h 57m
Length of Day
11h 10m
Waxing Gibbous, 91% of the Moon is Illuminated
Feb 11
Waxing Gibbous
Feb 14
Full
Feb 22
Last Quarter
Mar 1
New
Mar 8
First Quarter

Hourly Weather History & Observations

Time (CST) Temp. Windchill Dew Point Humidity Pressure Visibility Wind Dir Wind Speed Gust Speed Precip Events Conditions
12:35 AM - - - N/A% 30.07 in 10.0 mi NNE 5.8 mph - N/A   Overcast
12:55 AM - - - N/A% 30.07 in 3.0 mi North 8.1 mph - N/A   Drizzle
1:55 AM - - - N/A% 30.07 in 4.0 mi North 9.2 mph - N/A   Light Drizzle
2:15 AM - - - N/A% 30.07 in 5.0 mi North 9.2 mph - N/A   Light Drizzle
2:55 AM - - - N/A% 30.08 in 4.0 mi North 9.2 mph - N/A   Light Drizzle
3:35 AM - - - N/A% 30.07 in 3.0 mi NNE 6.9 mph - N/A   Drizzle
3:55 AM - - - N/A% 30.08 in 3.0 mi North 5.8 mph - N/A   Drizzle
4:35 AM - - - N/A% 30.09 in 4.0 mi North 6.9 mph - N/A   Haze
5:15 AM - - - N/A% 30.10 in 3.0 mi North 11.5 mph - N/A   Light Drizzle
6:35 AM - - - N/A% 30.14 in 3.0 mi North 9.2 mph - N/A   Drizzle
7:55 AM - - - N/A% 30.18 in 10.0 mi North 9.2 mph - N/A   Overcast
8:15 AM - - - N/A% 30.19 in 7.0 mi North 11.5 mph - N/A   Overcast
8:35 AM - - - N/A% 30.20 in 5.0 mi North 8.1 mph - N/A   Haze
8:55 AM - - - N/A% 30.20 in 10.0 mi North 9.2 mph - N/A   Overcast
9:15 AM - - - N/A% 30.22 in 10.0 mi North 10.4 mph 16.1 mph N/A   Overcast
9:35 AM - - - N/A% 30.23 in 7.0 mi North 11.5 mph - N/A   Overcast
9:55 AM - - - N/A% 30.24 in 2.0 mi North 12.7 mph 16.1 mph N/A   Overcast
10:15 AM - - - N/A% 30.25 in 2.0 mi North 10.4 mph - N/A   Drizzle
10:35 AM - - - N/A% 30.25 in 4.0 mi NNW 12.7 mph - N/A   Haze
10:55 AM - - - N/A% 30.25 in 10.0 mi NNW 12.7 mph 17.3 mph N/A   Overcast
11:15 AM - - - N/A% 30.24 in 10.0 mi North 10.4 mph 16.1 mph N/A   Overcast
11:35 AM - - - N/A% 30.23 in 10.0 mi North 12.7 mph 19.6 mph N/A   Overcast
11:55 AM - - - N/A% 30.23 in 10.0 mi North 9.2 mph - N/A   Overcast
12:15 PM - - - N/A% 30.23 in 10.0 mi NNW 10.4 mph - N/A   Overcast
12:35 PM - - - N/A% 30.23 in 10.0 mi NNW 10.4 mph 17.3 mph N/A   Overcast
12:55 PM - - - N/A% - - North - - N/A   Unknown
1:15 PM 39.2 °F 31.6 °F 35.6 °F 87% 30.21 in 10.0 mi NNW 12.7 mph - N/A   Overcast
1:35 PM - - - N/A% 30.20 in 10.0 mi NNW 12.7 mph 16.1 mph N/A   Overcast
1:55 PM - - - N/A% 30.19 in 10.0 mi NNW 12.7 mph 21.9 mph N/A   Overcast
2:15 PM - - - N/A% 30.18 in 10.0 mi North 10.4 mph 19.6 mph N/A   Overcast
2:35 PM - - - N/A% 30.17 in 10.0 mi NNW 11.5 mph 19.6 mph N/A   Overcast
2:55 PM - - - N/A% 30.17 in 10.0 mi NNW 15.0 mph - N/A   Overcast
3:15 PM - - - N/A% 30.17 in 10.0 mi NNW 10.4 mph - N/A   Overcast
3:35 PM - - - N/A% 30.16 in 10.0 mi NNW 15.0 mph 18.4 mph N/A   Overcast
3:55 PM 41.7 °F 35.2 °F 35.6 °F 79% 30.16 in 10.0 mi NW 11.5 mph 16.1 mph N/A   Overcast
4:15 PM 41.4 °F 34.3 °F 35.6 °F 80% 30.15 in 10.0 mi NNW 12.7 mph - N/A   Overcast
4:35 PM 41.4 °F 34.3 °F 35.1 °F 78% 30.15 in 10.0 mi NNW 12.7 mph - N/A   Overcast
4:55 PM 41.2 °F 35.5 °F 34.7 °F 78% 30.15 in 10.0 mi NNW 9.2 mph - N/A   Overcast
5:15 PM 41.2 °F 34.5 °F 34.5 °F 77% 30.16 in 10.0 mi NNW 11.5 mph 18.4 mph N/A   Overcast
5:35 PM 41.0 °F 33.9 °F 34.0 °F 76% 30.17 in 10.0 mi NNW 12.7 mph - N/A   Overcast
5:55 PM 40.6 °F 34.3 °F 34.2 °F 78% 30.18 in 10.0 mi NNW 10.4 mph - N/A   Overcast
6:15 PM 40.5 °F 33.6 °F 34.0 °F 78% 30.19 in 10.0 mi NNW 11.5 mph - N/A   Overcast
6:35 PM 40.5 °F 34.1 °F 34.3 °F 79% 30.19 in 10.0 mi NNW 10.4 mph - N/A   Overcast
6:55 PM 40.1 °F 33.2 °F 34.2 °F 79% 30.20 in 10.0 mi NW 11.5 mph 17.3 mph N/A   Overcast
7:15 PM 39.7 °F 32.7 °F 34.2 °F 80% 30.20 in 10.0 mi NNW 11.5 mph 17.3 mph N/A   Overcast
7:35 PM 39.9 °F 33.4 °F 34.0 °F 79% 30.21 in 10.0 mi NW 10.4 mph - N/A   Overcast
7:55 PM 39.7 °F 34.3 °F 33.8 °F 79% 30.22 in 10.0 mi NW 8.1 mph - N/A   Overcast
8:15 PM 39.9 °F 33.9 °F 33.8 °F 79% 30.23 in 10.0 mi NW 9.2 mph - N/A   Overcast
8:35 PM 40.1 °F 33.6 °F 33.8 °F 78% 30.23 in 10.0 mi NNW 10.4 mph - N/A   Overcast
8:55 PM 40.1 °F 34.1 °F 33.8 °F 78% 30.22 in 10.0 mi NNW 9.2 mph - N/A   Overcast
9:15 PM 40.1 °F 33.6 °F 34.3 °F 80% 30.22 in 10.0 mi NNW 10.4 mph - N/A   Overcast
9:35 PM 40.1 °F 34.7 °F 34.2 °F 79% 30.21 in 10.0 mi NNW 8.1 mph - N/A   Overcast
9:55 PM 40.1 °F 36.1 °F 34.2 °F 79% 30.22 in 10.0 mi NNW 5.8 mph - N/A   Overcast
10:15 PM 40.1 °F 36.1 °F 34.2 °F 79% 30.22 in 10.0 mi WNW 5.8 mph - N/A   Overcast
10:35 PM 40.1 °F 34.1 °F 34.0 °F 79% 30.23 in 10.0 mi NNW 9.2 mph - N/A   Overcast
10:55 PM 39.9 °F 34.5 °F 33.8 °F 79% 30.24 in 10.0 mi NW 8.1 mph - N/A   Overcast
11:15 PM 39.7 °F 33.7 °F 33.4 °F 78% 30.23 in 10.0 mi NW 9.2 mph - N/A   Overcast
11:35 PM 39.4 °F 33.2 °F 32.9 °F 78% 30.22 in 10.0 mi NNW 9.2 mph - N/A   Overcast
11:55 PM 39.2 °F 33.6 °F 32.5 °F 77% 30.23 in 10.0 mi NW 8.1 mph - N/A   Overcast